• In Uzbekistan
  • List of Countries
  • For 7 days
  • Water Temperature
  • Satellite Maps
  • Weather Map
  • Weather Widgets
  • user-avatar
    Login

    Hourly Weather Korçe

    Today, 26 September, Wednesday

    Time Temperature Precipitation Wind Pressure Humidity
    00:00 +5°C° 0 mm 3 mps 672 mmHg 44%
    01:00 +5°C° 0 mm 3 mps 672 mmHg 45%
    02:00 +4°C° 0 mm 3 mps 672 mmHg 48%
    03:00 +4°C° 0 mm 3 mps 672 mmHg 50%
    04:00 +3°C° 0 mm 3 mps 672 mmHg 52%
    05:00 +4°C° 0 mm 3 mps 672 mmHg 52%
    06:00 +4°C° 0 mm 3 mps 672 mmHg 51%
    07:00 +5°C° 0 mm 4 mps 672 mmHg 51%
    08:00 +6°C° 0 mm 4 mps 673 mmHg 48%
    09:00 +8°C° 0 mm 4 mps 673 mmHg 45%
    10:00 +9°C° 0 mm 5 mps 674 mmHg 42%
    11:00 +10°C° 0 mm 5 mps 674 mmHg 40%
    12:00 +12°C° 0 mm 5 mps 674 mmHg 39%
    13:00 +12°C° 0 mm 5 mps 674 mmHg 38%
    14:00 +12°C° 0 mm 5 mps 673 mmHg 38%
    15:00 +12°C° 0 mm 5 mps 673 mmHg 38%
    16:00 +10°C° 0 mm 5 mps 673 mmHg 38%
    17:00 +9°C° 0 mm 5 mps 673 mmHg 40%
    18:00 +7°C° 0 mm 4 mps 673 mmHg 42%
    19:00 +5°C° 0 mm 3 mps 673 mmHg 44%
    20:00 +5°C° 0 mm 3 mps 673 mmHg 45%
    21:00 +4°C° 0 mm 3 mps 674 mmHg 45%
    22:00 +4°C° 0 mm 3 mps 674 mmHg 46%
    23:00 +3°C° 0 mm 3 mps 674 mmHg 48%

    Tomorrow, 27 September, Thursday

    Time Temperature Precipitation Wind Pressure Humidity
    00:00 +3°C° 0 mm 3 mps 673 mmHg 50%
    01:00 +2°C° 0 mm 3 mps 673 mmHg 51%
    02:00 +2°C° 0 mm 3 mps 673 mmHg 54%
    03:00 +1°C° 0 mm 3 mps 672 mmHg 56%
    04:00 +1°C° 0 mm 3 mps 672 mmHg 59%
    05:00 +2°C° 0 mm 3 mps 672 mmHg 56%
    06:00 +3°C° 0 mm 3 mps 672 mmHg 53%
    07:00 +3°C° 0 mm 3 mps 673 mmHg 50%
    08:00 +7°C° 0 mm 3 mps 673 mmHg 42%
    09:00 +8°C° 0 mm 4 mps 673 mmHg 34%
    10:00 +11°C° 0 mm 4 mps 674 mmHg 25%
    11:00 +12°C° 0 mm 4 mps 673 mmHg 23%
    12:00 +13°C° 0 mm 5 mps 673 mmHg 22%
    13:00 +14°C° 0 mm 5 mps 673 mmHg 20%
    14:00 +14°C° 0 mm 5 mps 673 mmHg 21%
    15:00 +14°C° 0 mm 4 mps 672 mmHg 22%
    16:00 +14°C° 0 mm 4 mps 672 mmHg 23%
    17:00 +12°C° 0 mm 4 mps 671 mmHg 25%
    18:00 +10°C° 0 mm 3 mps 671 mmHg 28%
    19:00 +8°C° 0 mm 2 mps 670 mmHg 30%
    20:00 +8°C° 0 mm 2 mps 670 mmHg 30%
    21:00 +8°C° 0 mm 2 mps 670 mmHg 31%
    22:00 +7°C° 0 mm 2 mps 670 mmHg 31%
    23:00 +7°C° 0.2 mm 2 mps 670 mmHg 36%

    Day after tomorrow, 28 September, Friday

    Time Temperature Precipitation Wind Pressure Humidity
    00:00 +7°C° 0.2 mm 2 mps 670 mmHg 40%
    01:00 +7°C° 0.2 mm 2 mps 669 mmHg 44%
    02:00 +7°C° 0 mm 3 mps 669 mmHg 45%
    03:00 +7°C° 0 mm 3 mps 668 mmHg 46%
    04:00 +7°C° 0 mm 3 mps 668 mmHg 46%
    05:00 +7°C° 0 mm 3 mps 668 mmHg 45%
    06:00 +8°C° 0 mm 3 mps 668 mmHg 44%
    07:00 +8°C° 0 mm 3 mps 667 mmHg 43%
    08:00 +10°C° 0 mm 3 mps 668 mmHg 39%
    09:00 +13°C° 0 mm 3 mps 668 mmHg 36%
    10:00 +16°C° 0 mm 3 mps 668 mmHg 32%
    11:00 +17°C° 0 mm 3 mps 668 mmHg 33%
    12:00 +18°C° 0 mm 3 mps 668 mmHg 33%
    13:00 +19°C° 0 mm 3 mps 668 mmHg 33%
    14:00 +19°C° 0 mm 3 mps 668 mmHg 35%
    15:00 +18°C° 0 mm 3 mps 667 mmHg 36%
    16:00 +18°C° 0 mm 3 mps 667 mmHg 37%
    17:00 +16°C° 0 mm 2 mps 666 mmHg 42%
    18:00 +14°C° 0 mm 2 mps 666 mmHg 47%
    19:00 +13°C° 0 mm 2 mps 666 mmHg 52%
    20:00 +12°C° 0 mm 2 mps 666 mmHg 53%
    21:00 +12°C° 0 mm 2 mps 665 mmHg 55%
    22:00 +10°C° 0 mm 2 mps 665 mmHg 57%
    23:00 +10°C° 0 mm 2 mps 665 mmHg 58%

    29 September, Saturday

    Time Temperature Precipitation Wind Pressure Humidity
    00:00 +10°C° 0 mm 2 mps 665 mmHg 59%
    01:00 +9°C° 0 mm 2 mps 665 mmHg 60%
    02:00 +9°C° 0 mm 2 mps 664 mmHg 61%
    03:00 +9°C° 0 mm 2 mps 664 mmHg 63%
    04:00 +9°C° 0 mm 2 mps 664 mmHg 64%
    05:00 +9°C° 0 mm 2 mps 664 mmHg 63%
    06:00 +10°C° 0 mm 2 mps 664 mmHg 62%
    07:00 +12°C° 0 mm 2 mps 664 mmHg 61%
    08:00 +14°C° 0 mm 2 mps 665 mmHg 56%
    09:00 +16°C° 0 mm 2 mps 665 mmHg 51%
    10:00 +18°C° 0 mm 2 mps 666 mmHg 47%
    11:00 +19°C° 0 mm 3 mps 666 mmHg 45%
    12:00 +20°C° 0 mm 3 mps 665 mmHg 43%
    13:00 +21°C° 0 mm 3 mps 665 mmHg 41%
    14:00 +21°C° 0 mm 3 mps 665 mmHg 42%
    15:00 +20°C° 0 mm 3 mps 665 mmHg 44%
    16:00 +20°C° 0 mm 3 mps 665 mmHg 45%
    17:00 +18°C° 0 mm 3 mps 665 mmHg 50%
    18:00 +16°C° 0 mm 2 mps 665 mmHg 56%
    19:00 +14°C° 0 mm 2 mps 664 mmHg 61%
    20:00 +14°C° 0 mm 2 mps 664 mmHg 62%
    21:00 +13°C° 0 mm 2 mps 664 mmHg 64%
    22:00 +13°C° 0 mm 2 mps 664 mmHg 66%
    23:00 +12°C° 0 mm 2 mps 664 mmHg 65%

    30 September, Sunday

    Time Temperature Precipitation Wind Pressure Humidity
    00:00 +12°C° 0 mm 2 mps 664 mmHg 64%
    01:00 +10°C° 0 mm 2 mps 664 mmHg 63%
    02:00 +10°C° 0 mm 2 mps 664 mmHg 59%
    03:00 +10°C° 0 mm 2 mps 664 mmHg 56%
    04:00 +9°C° 0 mm 2 mps 664 mmHg 52%
    05:00 +10°C° 0 mm 2 mps 664 mmHg 49%
    06:00 +12°C° 0 mm 2 mps 665 mmHg 45%
    07:00 +12°C° 0 mm 2 mps 665 mmHg 42%
    08:00 +15°C° 0 mm 2 mps 666 mmHg 39%
    09:00 +17°C° 0 mm 2 mps 666 mmHg 35%
    10:00 +19°C° 0 mm 2 mps 667 mmHg 32%
    11:00 +19°C° 0 mm 2 mps 667 mmHg 33%
    12:00 +20°C° 0 mm 2 mps 667 mmHg 34%
    13:00 +21°C° 0 mm 2 mps 667 mmHg 35%
    14:00 +20°C° 0 mm 2 mps 667 mmHg 39%
    15:00 +19°C° 0 mm 2 mps 667 mmHg 43%
    16:00 +18°C° 0 mm 2 mps 667 mmHg 46%
    17:00 +16°C° 0 mm 2 mps 667 mmHg 54%
    18:00 +14°C° 0 mm 2 mps 666 mmHg 63%
    19:00 +12°C° 0 mm 2 mps 666 mmHg 71%
    20:00 +12°C° 0 mm 2 mps 666 mmHg 74%
    21:00 +10°C° 0 mm 2 mps 666 mmHg 77%
    22:00 +9°C° 0 mm 2 mps 666 mmHg 80%
    23:00 +9°C° 0.1 mm 2 mps 665 mmHg 82%

    1 October, Monday

    Time Temperature Precipitation Wind Pressure Humidity
    00:00 +9°C° 0.1 mm 2 mps 665 mmHg 83%
    01:00 +9°C° 0.1 mm 2 mps 665 mmHg 85%
    02:00 +9°C° 0.3 mm 2 mps 665 mmHg 85%
    03:00 +8°C° 0.3 mm 2 mps 665 mmHg 86%
    04:00 +8°C° 0.3 mm 2 mps 665 mmHg 86%
    05:00 +9°C° 0.1 mm 2 mps 665 mmHg 84%
    06:00 +10°C° 0.1 mm 2 mps 665 mmHg 82%
    07:00 +10°C° 0.1 mm 2 mps 665 mmHg 79%
    08:00 +13°C° 0.2 mm 2 mps 665 mmHg 73%
    09:00 +15°C° 0.2 mm 2 mps 666 mmHg 66%
    10:00 +16°C° 0.2 mm 2 mps 666 mmHg 59%
    11:00 +17°C° 0.5 mm 2 mps 666 mmHg 58%
    12:00 +17°C° 0.5 mm 2 mps 665 mmHg 58%
    13:00 +17°C° 0.5 mm 2 mps 665 mmHg 57%
    14:00 +17°C° 1 mm 2 mps 665 mmHg 59%
    15:00 +16°C° 1 mm 2 mps 664 mmHg 61%
    16:00 +16°C° 1 mm 2 mps 664 mmHg 63%
    17:00 +15°C° 0.4 mm 2 mps 664 mmHg 70%
    18:00 +13°C° 0.4 mm 1 mps 664 mmHg 76%
    19:00 +12°C° 0.4 mm 1 mps 663 mmHg 83%
    20:00 +11°C° 0 mm 1 mps 663 mmHg 85%
    21:00 +11°C° 0 mm 1 mps 663 mmHg 86%
    22:00 +10°C° 0 mm 1 mps 663 mmHg 88%
    23:00 +10°C° 0 mm 1 mps 663 mmHg 88%
    Show more